Terminal Aerodrome Forecast
Issued by NWS Wilmington, OH

Current Version | Previous Version | Text Only | Print | Product List | Glossary Off
Versions: 1 2 3 4 5 6 7 8 9 10 11 12 13 14 15 16

000
FTUS41 KILN 040500
TAFCMH
TAF
KCMH 040528Z 0406/0506 00000KT P6SM OVC120
      TEMPO 0408/0412 5SM BR
     FM041300 34005KT P6SM SCT040 BKN120
     FM041800 33007KT P6SM SCT050
     FM050000 VRB03KT P6SM SCT040=

USA.gov is the U.S. government's official web portal to all federal, state and local government web resources and services.